Location: Saluda
(35.2377°N, 82.3468°W)
Time: 14:49:16
(UTC+00:00)

Explorer 11/Cluster Stage 4 - Pass Details

Date: 10 October 2022
Orbit: 466 x 1247 km, 28.8° (Epoch: 08 December)

Event Time Altitude Azimuth Distance (km) Brightness Sun altitude
Rises 19:21:38 0° 268° (W) 4,178 10.8 38.6°
Reaches altitude 10° 19:25:24 10° 254° (WSW) 3,175 10.6 38.1°
Maximum altitude 19:31:04 21° 209° (SSW) 2,318 10.6 37.3°
Drops below altitude 10° 19:36:18 10° 163° (SSE) 2,892 9.9 36.5°
Sets 19:39:33 0° 148° (SSE) 3,714 10.2 36.1°
